H2SAT (HEINRICH HERTZ)

Last updated on Sat Aug 30 2025 00:02:51 GMT+0000 (Coordinated Universal Time)

1 57213U 23093A 25240.96858206 .00000026 00000+0 00000+0 0 9998 2 57213 0.0186 115.2144 0000620 142.7929 131.2122 1.00271588 7983
UTC large
Height (km)
Speed (km/s)
/
Latitude / Longitude
Inclination (degrees)
Orbital Period (minutes)
Azimuth
Elevation
Range (km)
Doppler Factor

Next 0 passes for location: London (51.5072 / 0.1276)

Sorry there are no passes over London.